Voltar ao catálogo

ONEWEB-0331

AtivoComunicaçõesPO
NORAD 49198·PAYLOAD·🇬🇧 United Kingdom

Lançado Sep 14, 2021 de Baikonur Cosmodrome

Loading…

Próximas Passagens (próximas 24 horas)

TLE

AtualizadoSource: CelesTrak SupGP

Época: Sep 14, 2026, 15:05 UTC

1 49198C 21083N   26257.62897407  .00001902  00000+0  48301-2 0  2576
2 49198  87.9174 317.6837 0002109 107.1794   4.6911 13.18687522    10

Acompanhe ONEWEB-0331 em tempo real com AllMySat

Download on the App Store